Погода в Буланаше

Россия / Свердловская область     57°16′36″N   61°59′26″E
темп.,
°C
ветер,
м/с
пор.,
м/с
влажн.,
%
обл.,
%
осадки,
мм/ч
давл.,
гПа
погр.,
м
6 марта, сб
сб623:00−9зсз41189100 0.0 999426
02:00−11з413897 0.0 1001444
05:00−13з5148610 0.0 1004477
08:00−14зюз411910 0.0 1005300
11:00−9з4108510 0.0 1005661
14:00−6зюз5107492 0.1 10061729
17:00−7з5117897 0.4 10061535
20:00−13з3118661 0.0 1008312
7 марта, вс
вс723:00−16з389130 0.0 1011178
02:00−18зюз23940 0.0 101134
05:00−19зюз23950 0.0 101228
08:00−20юз23960 0.0 101230
11:00−13юз23860 0.0 1011335
14:00−9юз127870 0.0 1010789
17:00−10ююв128785 0.1 1008397
20:00−15ссз119799 0.1 100820
8 марта, пн
пн823:00−16ссз229597 0.1 100721
02:00−19сз23951 0.0 100730
05:00−20зсз33981 0.0 100866
08:00−21з23960 0.0 100849
11:00−13юз13857 0.0 1008294
14:00−11ю3585100 0.0 1006513
17:00−11ю4993100 0.1 1006574
20:00−11ююв31095100 0.1 1005371
9 марта, вт
вт923:00−12ю3596100 0.1 1006136
02:00−14ююз239631 0.0 100552
05:00−13ююв379561 0.0 1004143
08:00−8ююв51294100 0.4 999696
11:00−4ююз71494100 1.4 9961220
14:00−4юз81374100 0.3 9961921
17:00−5зюз81682100 0.6 9972098
20:00−8зюз61478100 0.3 10011060
10 марта, ср
ср1023:00−11з4138656 0.3 1005606
02:00−16зсз239563 0.0 100752
05:00−19сз229839 0.0 100920
08:00−20ссз119834 0.0 101020
11:00−14св118962 0.1 1010312
14:00−10ссв0184100 0.1 1009548
17:00−11ссв1187100 0.1 1008371
20:00−16св119698 0.0 100820